Location: Goettingen
(51.5300°N, 9.9433°E)
Time: 15:36:20
(UTC+02:00)

ISS - Pass Details

Date: 17 May 2018
Orbit: 402 x 407 km, 51.6° (Epoch: 27 May)

Event Time Altitude Azimuth Distance (km) Brightness Sun altitude
Exits shadow 04:11:26 - 279° (W) 2,307 -0.3 -9.5°
Reaches altitude 10° 04:13:29 10° 278° (W) 1,459 -1.3 -9.3°
Maximum altitude 04:16:45 78° 194° (SSW) 416 -3.9 -9.0°
Drops below altitude 10° 04:20:01 10° 106° (ESE) 1,457 -0.6 -8.6°
Sets 04:22:05 0° 105° (ESE) 2,315 0.4 -8.4°
